GFSFLT1_con_3kmhel_147.txt.gz
Helicity
165 164 145 116 98 87 60 32 16 23 24 33 26 19 28 46 63 80 105 87 140 159 173 196 164 175 181 204 207 166 261 205
177 184 176 139 96 59 44 61 52 38 17 3 -15 -20 11 24 59 97 115 118 112 163 174 187 208 198 177 211 208 236 212 226
233 212 175 159 123 92 79 42 19 -10 -19 -16 -3 17 23 44 53 94 112 131 128 157 175 191 221 224 237 184 201 170 244 194
238 208 184 134 98 73 31 11 12 9 37 10 21 27 30 49 105 113 126 126 145 151 185 179 177 209 199 188 228 260 209 200
161 140 130 104 75 27 12 16 10 11 14 25 39 13 21 57 70 82 105 111 105 137 167 197 190 192 167 157 207 220 215 204
169 146 101 58 54 32 13 26 20 29 35 37 43 57 58 93 99 90 120 140 153 187 178 216 194 155 143 101 132 218 245 199
121 108 66 53 68 58 46 49 46 45 41 46 57 56 59 51 72 99 158 173 198 208 186 173 139 133 138 133 74 146 209 156
127 116 105 99 106 82 47 38 42 47 38 29 31 25 13 19 29 82 127 133 131 115 88 94 123 130 160 112 79 99 129 161
94 95 83 86 85 69 38 23 3 8 22 16 -2 -21 -41 -1 40 66 48 55 58 79 63 27 32 103 112 108 103 90 99 136
89 87 97 107 85 62 47 27 -5 -13 -1 0 -14 -37 -30 5 23 34 32 54 65 109 132 111 97 174 175 136 178 192 165 202
104 119 124 91 69 52 24 0 -15 -45 -36 -23 -57 -62 -27 -3 48 83 81 96 83 111 75 173 159 242 316 200 223 257 305 333
139 139 101 76 64 29 2 5 16 -23 -49 -44 -67 -56 -66 -52 -44 -27 44 109 149 133 178 326 321 318 480 448 407 336 430 403
160 122 93 88 77 40 33 26 12 -5 -22 -44 -73 -82 -64 -82 -59 -47 -53 -64 41 149 174 248 534 594 605 703 618 591 674 673
157 139 106 97 67 44 49 52 6 12 16 -6 -35 -32 -43 -58 -42 -45 -50 -41 -53 19 222 282 418 558 665 731 731 874 914 978
160 134 112 91 71 66 74 54 22 29 32 14 21 -8 -34 -40 -23 3 25 24 2 36 27 102 240 348 465 642 669 643 837 631
119 96 93 93 87 85 81 60 31 42 33 32 19 5 -2 -21 -9 -9 -19 -5 10 26 47 61 11 37 43 74 134 180 159 192
115 103 94 93 84 85 83 57 37 40 43 36 25 17 10 7 -14 -5 -6 1 6 8 40 57 59 25 17 9 26 53 82 116
119 111 88 84 81 88 85 52 30 43 42 33 26 20 20 11 -8 0 18 10 13 31 31 37 50 44 87 99 63 56 109 119
112 84 80 76 79 87 71 63 54 43 44 37 28 11 9 10 6 -6 -18 -16 -8 -11 0 24 43 90 88 39 35 14 25 101

GFSFLT1_con_3kmhel_150.txt.gz
Helicity
148 144 138 140 134 118 105 90 80 61 38 30 38 54 68 70 64 71 91 88 94 140 169 176 216 220 201 156 149 189 209 134
168 166 161 142 121 111 84 64 60 47 41 48 63 60 62 59 75 97 97 112 120 127 157 174 199 239 239 195 177 155 209 231
191 167 144 130 116 91 85 87 70 44 32 15 8 9 19 35 54 96 136 151 164 163 149 175 199 218 230 237 227 219 166 222
177 163 151 129 125 121 97 82 58 37 16 -9 10 27 49 60 86 99 122 145 166 186 177 185 201 200 182 223 292 207 262 226
188 174 144 130 127 95 71 60 38 16 17 13 30 15 31 65 71 64 93 158 156 153 153 163 204 208 198 181 190 277 231 213
169 155 136 122 100 82 53 23 20 28 11 10 5 30 38 48 73 76 118 154 174 165 161 133 109 112 96 119 163 195 218 214
113 120 99 96 88 71 38 25 20 21 0 12 20 21 28 69 104 127 166 171 171 168 151 133 122 107 112 102 106 121 150 146
131 120 119 93 82 76 60 47 27 27 11 15 25 32 14 41 78 121 153 156 166 148 122 102 63 60 71 108 109 94 112 100
116 92 98 102 89 84 69 60 47 10 -4 4 5 30 38 19 31 35 61 87 79 84 113 80 78 82 70 60 109 135 113 88
86 99 111 101 99 99 88 60 34 12 -25 -29 -27 -45 3 22 -9 -39 -25 0 30 36 41 78 140 170 174 137 171 212 278 185
93 105 114 115 105 89 61 44 32 -1 -10 -33 -48 -58 -76 -67 -56 -40 -77 -85 -6 101 99 79 126 195 180 208 316 362 293 270
106 129 126 117 100 97 63 57 38 13 -6 -21 -25 -41 -68 -58 -79 -86 -123 -159 -156 -38 60 123 140 186 271 388 415 373 339 385
116 144 138 118 120 99 96 75 46 30 9 -2 -6 -9 -38 -25 -45 -43 -62 -97 -146 -188 -79 127 162 147 296 428 485 617 525 592
144 156 149 129 116 102 101 81 56 36 38 21 9 19 10 -4 -25 -23 -26 -23 -21 -59 -126 -26 38 123 144 311 364 381 476 644
170 174 158 138 111 97 103 89 51 50 36 23 34 35 9 12 8 -16 -24 4 18 2 -25 -93 -62 44 138 215 301 269 333 478
157 155 139 110 99 102 102 76 60 54 51 51 37 31 22 14 19 9 4 -2 3 6 23 22 36 25 -3 -9 43 76 97 135
146 140 121 116 107 107 94 77 77 63 60 67 48 43 36 30 15 14 10 10 0 6 23 42 73 71 78 71 35 52 76 57
145 128 114 112 95 91 92 80 71 68 71 70 58 47 41 34 26 19 18 15 2 16 24 34 45 45 87 75 40 22 44 80
140 123 114 91 84 91 82 75 70 73 76 71 52 38 31 22 22 38 36 16 11 10 19 21 30 48 48 20 2 5 33 71

GFSFLT1_con_3kmhel_156.txt.gz
Helicity
265 207 183 175 149 122 124 109 110 114 100 98 95 85 70 53 49 56 105 77 118 77 52 76 89 100 117 151 187 218 225 243
352 197 140 159 130 132 125 117 123 114 104 97 86 74 56 58 82 136 114 132 119 91 85 93 102 112 119 127 150 167 139 221
286 234 176 165 165 150 145 139 119 107 82 70 57 42 46 65 72 91 123 107 124 93 68 72 94 92 98 103 125 139 141 156
282 160 135 130 140 132 129 116 107 94 80 39 36 31 37 42 43 44 59 80 91 88 80 96 88 81 65 68 93 101 121 153
343 172 134 135 129 123 126 112 102 80 61 44 33 -1 -7 0 11 12 20 47 68 96 86 90 84 79 85 83 89 91 111 115
200 167 141 147 133 104 104 81 76 69 59 45 7 2 -8 -3 9 11 11 11 35 61 70 84 107 106 103 104 95 83 86 109
192 155 112 131 110 114 95 98 84 80 78 60 45 34 17 13 24 21 19 16 17 36 65 87 105 110 122 122 93 83 78 67
96 66 128 175 139 111 100 122 119 103 82 63 47 39 32 28 17 -1 -1 29 47 55 42 49 72 110 117 122 117 77 62 82
173 212 215 147 112 126 137 133 136 111 88 71 46 38 10 -5 -8 -16 -34 -61 -47 -14 -29 4 62 102 120 107 94 81 73 45
171 205 150 125 134 130 145 140 143 118 90 66 52 31 26 4 6 -10 -22 -40 -87 -92 -56 -32 35 103 104 94 94 121 85 117
157 168 152 142 137 138 148 154 136 115 97 90 65 52 46 24 18 10 -4 -18 -36 -61 -85 -52 -56 53 128 105 118 180 163 204
227 189 144 124 138 166 147 136 125 112 98 75 61 54 45 24 7 19 -26 -11 3 -14 -45 -69 -72 -42 23 64 111 207 251 286
272 277 210 180 182 164 156 147 117 92 67 55 46 36 13 15 23 -11 -25 -35 -32 -11 -4 10 -21 -77 -52 -35 -9 64 167 291
232 239 208 149 167 122 144 137 108 70 64 31 32 20 20 17 22 5 -38 -38 -27 -26 3 34 56 0 -46 -27 -40 -67 -9 105
180 194 181 161 136 103 132 96 59 60 50 52 26 57 42 12 2 11 -8 -28 -26 -40 -6 30 54 42 15 -7 11 5 3 -16
137 153 142 121 117 114 100 96 67 51 60 61 48 49 56 41 42 45 35 34 16 -3 -2 19 50 73 25 19 15 32 53 30
113 126 132 120 118 116 117 100 83 73 72 64 63 57 44 37 39 36 41 40 42 34 28 33 59 78 74 56 14 16 29 50
128 107 96 108 124 123 107 106 81 90 85 79 71 64 59 52 52 53 44 41 31 35 36 33 51 61 99 28 39 1 6 40
138 204 187 146 116 116 114 91 92 99 100 92 79 74 69 68 61 45 43 35 35 23 24 23 33 47 74 67 20 3 8 25

GFSFLT1_con_3kmhel_159.txt.gz
Helicity
396 346 243 191 164 146 115 86 90 86 98 85 107 133 131 124 97 78 77 44 69 42 31 45 28 42 65 85 109 122 137 126
425 288 228 168 129 138 132 116 120 121 117 118 126 114 81 63 69 77 73 58 46 54 24 10 44 63 76 92 105 122 148 168
411 308 183 174 164 165 130 86 107 125 104 103 75 67 42 35 44 54 57 63 59 62 51 43 54 67 88 101 123 131 129 143
462 297 217 213 178 169 146 121 127 115 103 66 40 22 34 59 65 29 14 16 18 23 39 32 57 70 70 85 99 123 135 145
453 287 250 186 159 167 164 123 109 67 52 52 52 24 18 17 -2 -25 -40 -33 -23 -6 -9 12 35 49 67 73 85 88 93 113
349 283 226 169 147 140 153 83 91 69 62 68 56 44 14 -3 -10 -14 -34 -52 -44 -14 -11 5 24 35 58 82 113 107 91 89
261 207 248 229 176 165 203 108 83 75 69 73 72 53 24 7 4 -2 -20 -52 -61 -29 -14 4 29 53 63 79 101 113 97 83
194 209 291 220 204 221 162 164 94 81 72 77 62 49 23 3 4 4 6 -19 -46 -55 -51 -36 1 44 60 73 86 113 101 84
181 272 287 239 205 177 160 203 161 114 86 72 52 46 34 26 23 7 -6 -14 -27 -56 -77 -68 -65 -39 2 37 62 77 86 99
260 288 264 223 164 158 153 173 197 150 112 89 95 75 61 38 15 0 -11 -11 -14 -15 -39 -69 -77 -60 -65 -36 26 99 93 103
289 307 238 245 179 139 149 155 162 156 120 97 82 61 40 15 1 -9 -3 -17 -8 1 4 -15 -38 -42 -49 -58 -46 39 96 126
377 330 233 232 199 150 166 170 149 124 101 78 69 42 27 18 -8 -28 -35 -26 -4 13 6 23 16 -27 -37 -62 -82 -31 59 122
430 325 260 265 265 195 127 132 128 102 65 55 46 37 17 29 5 -42 -48 -46 -13 13 42 47 35 13 -14 -8 -33 -58 -72 23
382 300 270 223 187 186 137 148 91 106 72 28 37 9 -2 28 12 -71 -48 -65 -50 8 50 74 48 6 9 -4 -16 -26 -29 -44
292 290 228 197 170 132 101 86 99 88 51 52 63 47 -2 27 47 26 -1 -25 -36 8 46 70 87 16 -22 15 26 14 -6 -8
199 217 174 153 123 101 123 82 72 76 45 23 33 70 62 60 68 59 57 53 17 15 42 71 73 56 -1 -12 1 28 56 44
140 128 136 114 100 88 83 67 53 49 54 51 52 46 60 60 58 53 44 46 51 40 60 61 66 60 38 30 -2 -9 15 68
148 108 104 97 74 80 106 96 88 68 65 70 73 81 70 57 57 48 36 35 35 39 37 37 50 34 58 34 23 -15 -1 10
157 114 72 69 107 115 106 114 129 133 123 123 109 104 111 84 44 29 16 7 8 13 13 18 17 31 53 39 24 -15 -12 6

GFSFLT1_con_3kmhel_162.txt.gz
Helicity
430 394 326 237 193 163 125 135 161 146 122 117 111 109 104 91 76 63 53 16 19 -8 1 9 9 35 74 104 106 114 123 121
472 401 293 257 184 134 104 142 150 134 124 101 105 96 80 73 39 50 35 27 12 -2 -13 -2 16 27 50 68 73 89 114 125
488 365 286 201 127 99 104 128 143 136 116 86 63 34 36 8 11 24 16 7 -3 -3 -5 5 21 30 69 105 114 93 108 136
437 347 234 147 114 87 121 136 138 140 128 101 72 34 35 50 42 12 -15 -34 -38 -38 -22 -16 -3 17 41 80 101 133 107 157
514 336 212 141 126 137 143 139 116 130 123 116 101 78 57 43 16 -6 -33 -51 -58 -75 -74 -64 -53 -19 23 52 84 107 114 125
426 230 187 154 203 180 157 134 139 129 120 94 74 61 43 25 21 17 5 -22 -38 -54 -83 -82 -66 -44 -1 36 66 95 93 91
196 171 195 206 206 167 164 138 109 82 93 93 94 92 64 39 33 23 17 5 4 -15 -65 -92 -87 -76 -56 -7 50 82 93 101
188 209 219 221 192 197 156 102 94 79 101 116 102 75 58 47 42 28 25 22 26 27 -9 -55 -78 -93 -86 -64 0 55 92 95
187 210 239 217 195 198 182 149 106 102 118 108 94 74 46 44 40 21 15 11 17 28 22 -8 -26 -47 -84 -96 -67 -11 47 71
232 229 245 238 200 180 179 183 142 113 103 98 72 48 57 42 38 18 9 11 11 32 26 21 5 0 -26 -87 -87 -19 12 43
263 321 295 248 209 188 187 168 146 115 113 93 65 57 49 36 33 30 20 14 21 22 23 26 6 0 -6 -16 -60 -82 -38 34
365 354 312 284 215 192 185 156 160 152 133 90 67 58 50 40 21 21 12 16 28 28 9 16 28 16 -10 -1 -10 -11 -45 -26
409 366 338 284 235 206 180 168 152 146 107 70 63 48 50 30 14 15 14 34 38 45 37 16 22 11 20 14 13 -5 -1 15
436 400 326 276 247 201 159 145 158 121 70 65 50 45 48 24 6 -3 6 21 47 55 66 64 14 -10 -3 10 4 8 8 9
395 384 294 266 223 178 157 136 111 94 72 76 52 22 50 84 60 30 5 15 36 67 86 78 5 -39 -5 14 25 11 11 9
364 316 280 243 195 167 125 112 83 51 65 70 63 51 76 79 67 55 44 32 32 32 62 85 49 -11 4 7 13 23 34 19
255 217 227 196 172 140 119 77 60 69 50 35 64 87 87 73 61 47 42 36 29 38 40 45 39 12 44 38 4 2 4 48
185 160 171 144 122 117 90 59 54 62 65 73 99 95 82 75 61 48 41 29 18 25 20 20 27 10 34 24 11 -17 -14 -22
140 128 124 108 101 83 68 66 61 78 113 129 135 111 93 64 58 42 28 16 24 24 14 3 7 14 35 21 3 -17 -13 -7

GFSFLT1_con_3kmhel_165.txt.gz
Helicity
376 343 307 247 198 142 109 92 99 110 119 123 125 117 106 81 71 50 45 19 25 2 -12 -2 6 15 22 60 86 86 66 62
428 393 315 253 196 141 103 104 105 100 97 89 101 94 88 72 45 27 7 -9 -2 -12 -17 -15 -8 -15 22 52 42 71 76 98
491 402 325 250 170 119 92 87 108 120 107 94 68 50 56 34 31 41 47 30 9 -28 -40 -60 -48 -35 -3 42 70 58 59 103
506 419 311 203 139 97 72 88 109 136 149 101 82 62 55 65 78 59 38 29 11 -31 -51 -76 -88 -79 -54 -17 22 66 63 129
525 357 235 149 109 65 67 102 139 147 140 138 111 84 63 59 53 41 41 44 37 11 -32 -55 -86 -103 -68 -38 -6 30 54 98
468 289 196 79 53 75 92 140 138 151 150 110 87 86 76 69 67 69 64 42 45 44 15 -26 -48 -90 -100 -73 -29 4 21 53
335 232 152 117 85 102 135 140 149 123 92 93 85 94 79 78 73 67 59 44 48 63 55 26 -6 -42 -74 -107 -90 -41 -2 32
185 151 159 134 169 169 146 143 134 103 110 109 109 100 85 74 54 45 55 56 60 71 56 42 20 -8 -42 -68 -98 -101 -52 -7
131 141 170 177 171 148 143 131 121 120 124 127 105 94 81 60 51 45 40 35 43 48 45 28 20 10 -7 -32 -48 -84 -83 -30
226 251 212 190 177 180 152 145 128 127 132 115 112 108 83 56 56 48 46 48 44 57 53 41 31 25 13 -16 -21 -24 -74 -81
220 242 218 220 199 161 169 156 149 130 132 113 113 87 59 51 49 58 58 50 52 54 55 50 38 32 28 26 16 4 -15 -34
282 317 281 255 205 171 161 170 179 153 127 112 105 85 51 42 59 59 59 53 56 56 47 48 33 31 25 25 31 47 22 4
366 377 344 274 233 208 160 162 171 133 116 110 90 78 50 52 52 53 50 53 46 40 27 22 15 20 22 18 29 36 40 24
372 432 388 299 249 203 197 180 162 102 89 83 96 71 49 48 40 38 53 65 71 61 38 21 11 0 12 24 19 15 22 40
447 463 370 291 235 206 197 193 153 110 101 84 101 85 60 49 37 47 44 55 80 86 59 5 -25 -19 -1 -11 15 19 18 21
430 423 340 291 237 211 189 164 141 143 128 105 96 74 74 68 54 44 44 44 40 41 56 45 -3 -6 1 -1 -1 4 -8 -5
339 342 287 239 203 193 183 160 137 128 109 97 97 91 76 60 55 61 49 38 34 32 43 37 26 11 33 30 10 -3 -25 -18
245 230 242 226 206 182 145 136 132 95 76 88 99 91 83 66 68 59 49 37 26 30 24 27 29 14 29 29 19 -12 -16 -23
147 157 174 188 173 148 156 140 109 99 101 105 109 99 78 71 65 59 40 32 36 34 31 19 9 17 28 20 11 -3 -11 -20

GFSFLT1_con_3kmhel_168.txt.gz
Helicity
347 329 290 222 166 144 124 107 96 86 83 80 93 110 112 108 94 87 73 63 53 38 2 2 -11 -29 -34 -28 -9 2 -3 -5
404 378 318 270 231 182 144 114 76 45 60 66 86 91 90 99 73 77 69 71 56 44 24 5 -18 -36 -35 -30 -28 -4 0 23
486 420 337 285 215 160 123 104 93 84 72 74 77 64 85 69 58 69 66 75 70 43 39 19 -11 -41 -44 -50 -34 -37 -21 26
476 384 333 276 186 121 99 86 97 100 105 107 93 88 71 63 68 63 69 75 77 74 62 43 13 -30 -57 -82 -77 -53 -33 -4
504 448 326 166 128 115 89 85 87 118 152 139 123 90 62 58 56 63 71 80 82 83 74 63 36 6 -10 -59 -90 -95 -61 -15
436 275 241 210 149 117 97 80 126 129 139 118 107 85 58 53 63 82 83 83 89 95 74 65 48 23 9 -13 -47 -88 -109 -69
287 241 211 181 146 131 60 87 96 151 141 140 115 97 82 97 92 96 77 60 68 82 62 55 53 48 31 6 -16 -40 -76 -82
191 202 172 156 123 64 76 84 134 121 119 119 114 104 114 108 108 78 61 63 74 86 75 77 65 49 35 17 4 -16 -35 -73
42 113 210 205 158 148 105 113 124 118 116 117 114 109 85 97 84 62 67 61 66 66 62 59 50 35 31 22 5 -15 -20 -52
151 222 177 201 159 138 123 123 139 133 122 123 128 124 134 108 90 78 59 52 44 51 56 62 43 33 27 9 9 12 -2 -21
174 203 219 201 184 192 150 122 126 110 122 133 133 128 115 96 77 79 60 49 53 66 72 59 48 42 31 24 23 16 7 4
222 247 242 240 229 197 147 139 141 132 127 138 138 127 106 71 72 61 48 51 65 63 62 51 51 52 44 40 28 31 16 18
293 288 330 320 267 237 186 153 140 122 136 142 117 89 86 80 59 50 59 63 53 56 50 47 42 32 41 40 36 43 29 28
342 363 410 353 286 253 187 146 140 159 151 114 92 93 98 61 37 40 60 69 68 44 41 36 32 29 32 31 24 36 36 34
421 494 413 345 317 245 162 148 143 135 130 101 92 74 64 43 38 53 66 62 73 63 33 25 17 10 9 6 21 24 13 17
335 373 411 397 315 229 202 178 149 140 150 119 98 87 64 46 48 54 52 56 56 50 50 34 13 10 7 13 13 25 8 7
254 301 323 304 275 232 208 198 180 175 142 125 107 91 65 57 60 64 57 54 56 46 39 27 19 18 32 29 12 -4 -4 3
196 208 264 307 256 222 193 195 200 155 146 121 101 76 67 67 61 65 61 57 43 39 31 25 21 12 30 37 28 -3 -18 -12
125 143 203 228 227 205 217 197 156 136 122 109 92 78 81 70 75 71 58 45 50 45 38 27 16 22 31 28 16 -7 -19 -28